Temp
-15 -15 -16 -17 -17 -18 -17 -16 -16 -15 -15 -15 -14 -14 -14 -14 -14 -13 -13 -13 -13 -13 -13 -13 -13 -13 -13 -13 -14 -15 -16 -18 -19 -21 -21 -21 -22 -22 -23 -23 -23 -22 -22
-16 -16 -17 -18 -19 -19 -18 -17 -16 -16 -15 -15 -15 -14 -14 -14 -14 -13 -13 -13 -13 -13 -13 -13 -13 -13 -14 -15 -15 -17 -19 -20 -21 -22 -22 -23 -23 -23 -23 -23 -23 -23 -23
-16 -17 -17 -18 -18 -18 -17 -17 -16 -16 -15 -15 -15 -14 -14 -14 -14 -13 -13 -13 -13 -13 -13 -13 -14 -15 -15 -16 -17 -19 -21 -22 -22 -23 -23 -24 -24 -24 -24 -24 -24 -24 -24
-16 -16 -17 -17 -17 -17 -17 -17 -16 -15 -15 -15 -15 -14 -14 -14 -14 -14 -13 -13 -13 -14 -14 -15 -15 -16 -17 -18 -20 -21 -22 -23 -24 -24 -25 -25 -25 -25 -24 -24 -24 -24 -24
-16 -16 -16 -16 -16 -16 -16 -16 -16 -15 -15 -15 -14 -14 -14 -14 -14 -14 -14 -14 -14 -15 -15 -15 -16 -18 -19 -20 -21 -23 -24 -24 -25 -25 -25 -25 -25 -25 -25 -24 -24 -24 -24
-15 -16 -16 -16 -16 -16 -16 -15 -15 -15 -15 -14 -14 -14 -14 -14 -14 -14 -14 -15 -15 -15 -16 -17 -18 -19 -21 -22 -23 -24 -24 -25 -25 -25 -26 -26 -26 -26 -25 -25 -24 -24 -24
-15 -15 -15 -15 -15 -15 -15 -15 -15 -15 -15 -15 -15 -15 -15 -15 -15 -15 -15 -15 -16 -16 -17 -18 -19 -20 -21 -23 -24 -25 -25 -25 -26 -25 -25 -26 -26 -26 -25 -25 -25 -24 -24
-15 -15 -15 -15 -15 -15 -15 -15 -15 -15 -15 -15 -15 -15 -15 -15 -15 -15 -15 -16 -16 -16 -17 -18 -20 -21 -22 -23 -24 -25 -25 -25 -25 -25 -25 -25 -26 -26 -26 -25 -25 -24 -24
-15 -15 -15 -15 -15 -15 -15 -15 -15 -15 -15 -15 -15 -15 -16 -16 -16 -16 -16 -17 -17 -17 -18 -20 -21 -22 -23 -24 -24 -25 -25 -25 -25 -25 -25 -25 -26 -26 -26 -26 -25 -24 -24
-15 -15 -15 -15 -15 -15 -15 -15 -15 -15 -15 -16 -16 -16 -16 -16 -16 -16 -17 -17 -17 -18 -19 -21 -22 -23 -24 -24 -24 -25 -25 -25 -25 -25 -25 -26 -26 -26 -25 -25 -25 -24 -24
-15 -15 -15 -15 -15 -15 -15 -15 -15 -15 -16 -16 -16 -16 -16 -16 -16 -17 -17 -17 -18 -19 -20 -22 -22 -23 -24 -24 -24 -24 -24 -25 -25 -25 -25 -25 -26 -26 -25 -25 -24 -24 -23
-15 -15 -15 -15 -15 -15 -15 -15 -16 -16 -16 -16 -16 -16 -16 -16 -17 -17 -17 -18 -19 -19 -20 -22 -23 -23 -24 -24 -24 -24 -24 -24 -24 -25 -25 -25 -25 -25 -25 -24 -24 -23 -23
-15 -15 -15 -15 -15 -15 -16 -16 -16 -16 -16 -16 -16 -16 -17 -17 -17 -18 -18 -19 -19 -20 -22 -23 -23 -24 -23 -23 -24 -24 -24 -24 -24 -25 -25 -25 -25 -25 -24 -24 -23 -23 -22
-16 -16 -16 -16 -16 -16 -16 -16 -16 -16 -17 -17 -17 -17 -17 -17 -17 -18 -19 -19 -20 -21 -22 -23 -23 -24 -24 -24 -24 -24 -24 -24 -24 -24 -24 -24 -24 -24 -24 -24 -23 -22 -22
-16 -16 -16 -16 -16 -16 -16 -16 -17 -17 -17 -17 -17 -17 -17 -18 -18 -19 -19 -20 -21 -22 -22 -23 -24 -24 -24 -24 -24 -24 -24 -24 -24 -24 -24 -24 -24 -24 -24 -23 -22 -22 -21
-16 -16 -17 -17 -17 -17 -17 -17 -17 -17 -17 -18 -18 -18 -18 -18 -19 -19 -19 -20 -21 -22 -23 -23 -24 -24 -24 -24 -24 -24 -24 -24 -24 -24 -24 -24 -24 -24 -23 -23 -22 -21 -21
-16 -17 -17 -17 -17 -17 -17 -17 -18 -18 -18 -18 -18 -18 -18 -19 -19 -19 -20 -21 -21 -22 -23 -24 -24 -24 -24 -24 -24 -24 -24 -24 -24 -24 -24 -24 -24 -23 -23 -22 -22 -21 -21
-17 -17 -17 -17 -17 -18 -18 -18 -18 -18 -18 -18 -18 -19 -19 -19 -20 -20 -20 -21 -21 -22 -23 -24 -24 -24 -24 -24 -24 -24 -24 -25 -25 -25 -24 -24 -24 -23 -23 -22 -21 -21 -21
-17 -17 -18 -18 -18 -18 -18 -18 -18 -18 -18 -18 -19 -19 -19 -20 -20 -20 -20 -21 -22 -23 -23 -24 -24 -24 -24 -24 -24 -24 -24 -25 -25 -26 -25 -24 -23 -23 -23 -22 -21 -21 -21
-18 -18 -18 -18 -18 -19 -19 -18 -18 -18 -18 -19 -19 -20 -20 -20 -20 -21 -21 -21 -22 -23 -24 -24 -24 -24 -24 -24 -24 -24 -24 -25 -25 -25 -24 -24 -23 -23 -23 -22 -21 -21 -21
-18 -18 -18 -19 -19 -19 -19 -19 -19 -19 -19 -19 -19 -20 -21 -20 -20 -21 -21 -22 -22 -23 -24 -24 -24 -24 -24 -23 -24 -24 -24 -24 -25 -25 -25 -24 -24 -23 -23 -22 -22 -22 -22
-18 -19 -19 -19 -19 -19 -19 -19 -19 -19 -19 -19 -20 -20 -20 -20 -20 -21 -21 -22 -22 -23 -24 -24 -23 -23 -23 -23 -23 -23 -24 -24 -24 -24 -25 -25 -24 -23 -23 -23 -23 -23 -22
-19 -19 -19 -19 -19 -19 -19 -19 -19 -19 -19 -20 -20 -21 -20 -20 -20 -21 -21 -22 -23 -23 -24 -23 -23 -23 -23 -23 -23 -23 -23 -23 -24 -24 -25 -25 -24 -24 -24 -23 -23 -23 -22
-19 -19 -19 -20 -20 -20 -20 -20 -19 -19 -20 -20 -20 -20 -21 -20 -21 -21 -22 -22 -23 -23 -23 -23 -23 -23 -23 -23 -22 -22 -23 -23 -23 -24 -24 -24 -24 -24 -23 -23 -23 -23 -22
-19 -19 -20 -20 -20 -20 -20 -20 -20 -20 -20 -20 -20 -21 -21 -21 -21 -21 -22 -22 -23 -23 -23 -23 -23 -23 -23 -22 -22 -22 -22 -23 -23 -23 -24 -24 -24 -23 -23 -23 -23 -22 -22
-19 -20 -20 -20 -20 -20 -20 -20 -20 -20 -20 -21 -21 -21 -21 -21 -21 -22 -22 -23 -23 -24 -23 -23 -23 -23 -23 -22 -22 -22 -22 -22 -23 -23 -23 -23 -23 -23 -23 -23 -22 -22 -21
Height
5737 5730 5723 5717 5711 5709 5709 5710 5711 5711 5711 5711 5710 5709 5707 5705 5702 5699 5695 5691 5687 5681 5675 5669 5662 5654 5645 5636 5627 5617 5608 5599 5591 5584 5576 5571 5567 5563 5559 5557 5554 5552 5549
5733 5726 5718 5712 5708 5706 5707 5708 5708 5709 5709 5709 5708 5707 5704 5701 5698 5695 5690 5685 5680 5674 5667 5659 5651 5642 5632 5623 5612 5603 5593 5585 5578 5571 5564 5558 5554 5550 5547 5545 5542 5540 5538
5731 5724 5719 5714 5710 5708 5708 5708 5707 5707 5708 5707 5706 5704 5701 5698 5695 5690 5685 5679 5673 5665 5657 5649 5640 5629 5619 5608 5598 5588 5579 5571 5564 5557 5552 5547 5543 5540 5536 5533 5531 5529 5528
5730 5725 5720 5716 5713 5711 5709 5709 5708 5707 5706 5705 5704 5701 5699 5695 5690 5685 5678 5671 5664 5657 5648 5638 5628 5617 5606 5595 5584 5574 5566 5558 5551 5545 5540 5535 5532 5529 5527 5525 5522 5519 5518
5731 5727 5723 5719 5716 5713 5711 5709 5708 5706 5705 5704 5702 5699 5695 5690 5685 5678 5671 5665 5656 5648 5638 5627 5616 5604 5592 5581 5572 5562 5553 5546 5539 5534 5530 5525 5522 5519 5517 5516 5513 5511 5508
5730 5727 5724 5721 5717 5714 5712 5709 5708 5706 5704 5703 5700 5695 5690 5685 5679 5673 5665 5657 5649 5639 5628 5617 5604 5593 5581 5570 5559 5549 5542 5536 5531 5525 5521 5517 5514 5511 5508 5506 5505 5503 5502
5730 5727 5724 5721 5718 5715 5712 5710 5707 5706 5703 5700 5696 5692 5686 5680 5674 5667 5659 5651 5641 5630 5619 5607 5594 5582 5572 5561 5551 5541 5534 5528 5523 5519 5514 5510 5506 5502 5499 5498 5497 5496 5495
5728 5726 5724 5721 5719 5715 5712 5710 5708 5705 5701 5698 5693 5688 5682 5676 5669 5660 5652 5642 5633 5622 5609 5596 5584 5573 5562 5552 5543 5535 5528 5522 5517 5513 5509 5504 5499 5495 5491 5489 5489 5489 5488
5726 5724 5722 5720 5718 5715 5712 5710 5707 5704 5699 5695 5690 5684 5678 5671 5663 5655 5646 5636 5624 5612 5599 5587 5575 5565 5555 5547 5539 5531 5524 5518 5513 5509 5504 5498 5493 5489 5485 5483 5482 5483 5483
5723 5721 5720 5718 5717 5714 5711 5708 5705 5701 5696 5691 5686 5680 5674 5666 5658 5649 5639 5627 5616 5604 5592 5580 5570 5559 5551 5543 5535 5528 5521 5516 5510 5505 5499 5494 5489 5485 5482 5480 5479 5479 5479
5719 5718 5717 5715 5713 5711 5709 5706 5703 5698 5693 5688 5683 5677 5670 5662 5652 5642 5631 5620 5609 5597 5586 5575 5565 5556 5548 5540 5532 5526 5520 5515 5509 5504 5498 5492 5487 5482 5479 5477 5476 5476 5475
5716 5715 5713 5712 5710 5708 5706 5703 5700 5695 5691 5685 5679 5672 5664 5655 5646 5636 5625 5614 5603 5591 5580 5570 5561 5552 5544 5537 5530 5524 5519 5513 5507 5501 5495 5489 5483 5479 5476 5474 5473 5473 5473
5712 5711 5710 5708 5707 5705 5703 5700 5697 5693 5688 5682 5674 5666 5658 5649 5639 5630 5620 5608 5597 5586 5576 5566 5557 5549 5542 5535 5529 5523 5517 5511 5504 5498 5492 5486 5481 5477 5474 5472 5471 5471 5472
5708 5707 5706 5705 5703 5702 5700 5697 5693 5688 5683 5676 5669 5661 5652 5643 5633 5623 5613 5602 5591 5580 5569 5561 5553 5546 5539 5532 5526 5520 5514 5507 5501 5495 5489 5484 5479 5475 5473 5471 5471 5471 5472
5704 5703 5702 5701 5700 5699 5697 5693 5689 5684 5678 5671 5664 5656 5647 5638 5629 5620 5610 5599 5588 5577 5567 5558 5550 5543 5537 5531 5524 5518 5512 5504 5497 5491 5486 5482 5478 5475 5473 5471 5471 5472 5472
5700 5699 5698 5698 5697 5695 5692 5689 5685 5679 5674 5667 5660 5652 5643 5634 5625 5615 5605 5593 5582 5572 5563 5554 5547 5540 5534 5528 5522 5516 5508 5501 5494 5489 5486 5482 5478 5475 5473 5472 5473 5473 5473
5696 5696 5695 5694 5693 5691 5688 5684 5680 5675 5669 5663 5655 5647 5638 5630 5620 5610 5600 5589 5578 5569 5559 5550 5543 5536 5531 5526 5520 5513 5506 5500 5494 5489 5485 5482 5479 5476 5475 5474 5474 5475 5475
5692 5692 5691 5690 5688 5687 5684 5681 5676 5671 5665 5658 5650 5642 5634 5625 5616 5606 5596 5585 5574 5562 5555 5547 5539 5533 5529 5524 5518 5512 5506 5500 5494 5489 5485 5482 5479 5477 5477 5476 5477 5477 5477
5689 5688 5688 5687 5686 5684 5681 5677 5673 5667 5661 5654 5646 5636 5628 5620 5612 5603 5593 5581 5569 5558 5549 5541 5535 5531 5528 5523 5517 5511 5506 5500 5494 5489 5486 5483 5481 5479 5479 5479 5480 5480 5480
5685 5685 5685 5684 5683 5680 5677 5673 5668 5663 5656 5649 5642 5633 5625 5617 5607 5596 5586 5577 5565 5555 5544 5537 5533 5531 5528 5523 5518 5513 5508 5503 5496 5491 5488 5485 5484 5483 5482 5483 5484 5484 5484
5683 5683 5682 5681 5679 5676 5673 5669 5664 5658 5651 5644 5636 5629 5622 5614 5605 5596 5584 5573 5562 5551 5541 5537 5534 5532 5528 5524 5520 5515 5511 5506 5502 5498 5493 5490 5488 5487 5487 5487 5488 5488 5488
5679 5679 5679 5678 5675 5673 5669 5665 5659 5653 5647 5640 5632 5625 5619 5611 5602 5592 5582 5570 5560 5550 5543 5539 5537 5534 5530 5526 5522 5518 5514 5510 5506 5502 5499 5496 5494 5493 5493 5493 5493 5493 5492
5675 5675 5675 5673 5671 5668 5665 5660 5654 5648 5643 5636 5629 5622 5615 5607 5599 5589 5579 5568 5559 5551 5546 5542 5539 5535 5532 5528 5524 5521 5517 5513 5510 5506 5503 5501 5500 5499 5499 5499 5498 5498 5497
5672 5671 5670 5668 5666 5663 5659 5655 5650 5645 5638 5631 5625 5619 5612 5604 5596 5586 5577 5567 5559 5553 5548 5545 5542 5538 5534 5530 5527 5524 5521 5518 5514 5511 5508 5507 5506 5505 5505 5504 5503 5502 5501
5667 5666 5665 5663 5661 5658 5655 5650 5645 5639 5633 5627 5622 5616 5609 5601 5593 5584 5575 5566 5559 5554 5550 5547 5543 5540 5536 5533 5529 5527 5524 5521 5519 5516 5514 5512 5510 5509 5509 5508 5507 5506 5505
5662 5661 5660 5658 5656 5653 5649 5645 5640 5634 5629 5624 5618 5612 5605 5598 5590 5582 5573 5565 5559 5554 5551 5548 5545 5542 5538 5535 5532 5530 5528 5525 5523 5521 5519 5517 5516 5514 5513 5512 5511 5510 5509
Wind_Speed
36 34 32 29 26 24 16 14 11 9 8 8 11 14 16 19 20 22 24 26 29 33 37 40 45 49 53 56 58 59 59 57 52 48 47 46 45 44 43 43 43 44 45
29 26 25 22 17 9 7 7 5 4 5 9 11 14 16 17 19 21 24 28 33 37 41 46 50 52 54 56 59 59 56 51 47 45 44 43 41 39 38 38 38 39 39
19 22 21 17 10 4 1 1 1 2 5 8 10 11 14 17 20 23 27 32 37 41 45 49 51 53 56 58 59 57 53 50 46 42 41 39 36 36 35 35 34 34 35
19 20 17 14 9 6 4 3 3 4 6 7 10 13 16 19 22 27 31 36 41 45 47 50 53 55 57 57 54 52 50 45 42 39 37 36 35 33 33 32 32 32 31
15 16 15 13 10 8 6 5 5 5 6 9 12 15 19 23 27 32 36 40 44 47 50 52 54 55 55 53 50 48 43 39 37 35 33 33 32 32 30 29 29 30 30
12 13 14 13 11 10 9 8 8 8 11 13 16 20 23 27 31 34 39 43 46 49 51 52 54 53 51 50 49 45 41 36 31 30 29 29 30 31 32 29 27 26 26
11 11 10 10 11 12 10 10 12 13 14 17 20 23 27 30 34 38 42 45 48 50 51 52 51 50 49 47 43 39 35 29 28 26 25 26 27 28 29 30 28 26 25
11 9 7 7 9 13 15 14 14 15 17 19 22 26 29 33 37 41 45 48 50 53 54 54 51 49 48 42 37 33 29 27 26 24 23 25 26 26 26 25 25 24 23
12 8 7 7 8 10 12 13 16 17 19 21 25 28 32 36 40 43 46 48 52 54 55 52 50 48 43 36 34 31 29 27 25 25 26 26 24 21 20 19 20 18 18
12 10 9 8 9 9 12 15 17 20 22 26 28 31 35 38 42 45 47 51 53 54 53 50 47 44 37 33 30 28 25 24 24 23 23 24 22 19 15 13 14 15 15
12 11 12 11 11 13 14 16 19 22 25 28 31 34 37 40 43 47 49 52 54 54 52 48 44 40 33 30 27 24 23 21 22 24 25 24 22 19 15 12 11 12 13
12 13 13 13 13 15 16 18 20 23 26 29 32 36 39 42 44 48 51 53 54 54 52 46 42 37 31 29 24 23 24 26 26 25 26 27 22 17 13 10 10 9 10
15 14 14 14 15 16 17 18 21 24 28 31 35 38 40 43 46 48 50 53 54 52 48 42 39 33 28 24 23 22 25 30 28 27 28 27 22 14 11 8 5 5 7
15 15 14 15 14 16 17 19 23 26 30 33 37 40 43 46 49 50 51 53 53 51 47 41 37 29 27 25 25 26 30 32 30 28 26 22 19 12 9 5 1 3 3
15 15 12 13 14 14 17 21 25 28 32 35 39 42 44 46 48 49 51 52 50 47 43 38 36 29 24 24 24 27 30 31 28 24 20 18 17 11 8 3 2 2 2
15 14 12 12 12 14 17 21 26 30 33 36 40 42 44 46 48 50 52 54 53 48 42 38 34 28 24 24 26 30 30 28 23 19 17 15 15 10 7 3 3 2 2
14 13 11 10 11 14 18 23 28 32 35 38 41 44 45 45 48 50 52 54 53 47 41 37 32 26 23 24 28 29 25 26 25 16 14 14 13 8 6 4 4 4 5
14 12 11 10 12 14 19 24 29 33 36 40 43 44 44 45 47 50 53 54 52 50 43 37 29 23 22 24 28 25 23 24 23 16 13 12 11 7 6 5 6 6 7
12 11 11 12 13 16 21 26 30 34 37 40 44 46 45 45 46 49 52 54 52 49 44 36 23 19 20 24 26 24 20 25 25 15 11 10 8 7 7 7 7 7 7
13 12 11 13 15 19 23 28 32 35 38 42 45 45 41 44 47 52 53 52 51 48 43 27 16 15 19 22 23 22 21 23 24 18 13 11 10 9 9 8 8 8 8
14 14 13 15 18 21 25 30 33 36 39 44 46 41 39 42 45 50 50 51 49 46 34 17 13 14 19 19 20 21 21 18 20 23 21 14 12 11 11 12 11 11 10
15 16 16 17 21 24 27 32 34 37 41 43 44 37 38 41 45 48 48 49 46 38 22 14 13 15 18 17 18 17 18 18 17 17 16 13 13 15 16 16 14 13 11
18 18 18 21 24 25 29 32 35 38 39 42 36 34 38 41 45 45 46 46 40 28 17 13 14 17 19 17 15 17 19 19 17 18 15 15 15 16 17 17 15 13 11
19 20 21 23 24 26 31 32 34 36 39 37 31 34 37 40 43 43 43 41 34 22 14 13 14 17 19 17 14 17 18 18 17 17 15 12 13 13 15 14 14 13 10
19 21 22 23 24 28 30 32 34 36 36 30 30 33 36 39 41 41 40 37 29 19 12 12 14 17 18 16 14 12 13 16 16 15 18 14 9 10 10 11 11 11 9
19 21 22 22 24 27 29 31 33 34 30 26 30 33 35 36 39 39 37 33 25 17 10 10 13 16 17 16 11 11 13 15 15 15 15 16 16 13 8 7 8 9 9
Wind_Direction
317 318 314 313 309 304 275 257 253 258 263 273 291 303 309 313 316 318 316 316 314 313 314 313 313 314 315 313 311 309 307 305 303 298 294 291 287 285 284 282 279 278 277
324 330 339 340 331 293 244 220 213 236 273 292 305 313 317 322 321 320 321 319 318 317 318 318 317 317 316 314 311 310 308 306 303 299 295 291 289 287 284 282 280 279 277
343 358 354 357 355 358 356 245 233 302 316 319 321 324 326 326 326 326 324 323 323 323 322 321 321 320 319 315 312 311 309 306 302 298 293 289 287 286 284 284 284 284 281
356 356 353 349 354 5 10 13 19 352 336 332 335 337 334 331 329 330 329 327 326 325 326 326 326 323 319 317 315 313 309 306 302 298 296 293 289 286 284 284 287 288 286
360 359 0 4 11 15 8 360 11 15 1 348 343 336 332 335 335 335 332 329 329 330 331 330 328 324 322 319 317 314 312 308 303 300 297 293 288 285 285 283 286 289 292
349 351 352 354 2 8 13 20 18 10 359 346 338 338 337 338 339 334 332 333 333 335 335 332 330 328 325 323 321 320 317 312 307 303 300 295 290 285 283 282 282 288 288
332 340 347 356 12 17 19 17 13 360 347 343 339 339 339 338 337 336 336 335 338 338 336 334 332 331 329 328 325 322 320 319 314 313 309 306 301 292 282 277 276 281 288
310 322 330 347 3 14 15 6 355 349 341 341 342 339 339 339 339 340 338 339 340 339 340 338 336 335 334 335 336 335 333 329 325 321 318 313 308 302 292 279 273 275 287
293 299 303 317 333 353 353 346 341 336 339 343 342 340 340 342 342 340 341 341 342 343 343 341 339 338 339 339 339 337 335 333 330 325 321 319 314 309 295 280 276 271 284
283 286 286 290 309 325 329 330 327 333 339 342 340 341 342 343 340 341 343 344 344 345 344 342 341 341 340 341 339 340 339 336 334 336 337 335 332 325 311 291 273 271 285
280 282 282 283 288 304 312 319 326 333 337 337 339 339 340 341 342 343 345 346 346 345 345 344 342 343 342 343 346 349 352 351 345 340 337 333 331 326 317 300 285 283 277
281 280 281 283 284 293 307 316 325 331 333 334 336 337 339 342 344 345 346 347 347 345 345 344 344 345 345 346 351 354 350 347 343 343 345 344 337 325 316 309 287 274 256
280 279 282 281 283 294 304 314 323 327 329 333 336 339 341 344 345 346 346 347 347 346 344 344 344 345 342 347 351 343 340 340 339 336 337 340 341 335 329 322 288 237 244
281 280 282 283 288 296 303 314 320 325 329 334 337 340 343 344 345 347 347 347 346 345 344 345 345 343 343 345 344 341 338 336 335 334 337 343 349 344 338 334 252 208 235
283 280 284 283 290 298 308 314 320 325 331 336 339 342 343 344 344 344 345 346 346 345 344 344 345 343 342 341 341 338 336 334 334 338 344 348 354 358 358 2 163 193 224
285 279 279 281 288 302 309 318 325 330 337 340 342 342 342 342 342 344 345 345 345 345 344 343 343 343 343 342 342 342 344 347 345 347 352 354 359 8 15 54 131 147 143
280 276 268 273 290 302 319 328 330 336 341 341 343 342 341 342 343 344 345 344 343 343 344 341 340 340 343 345 347 350 358 360 356 356 358 358 3 22 36 85 113 113 106
280 262 259 272 289 313 324 329 334 338 340 341 341 340 341 342 343 343 344 343 343 342 343 338 338 340 346 350 351 355 356 1 359 0 1 2 10 38 58 95 106 99 89
270 253 261 279 302 318 324 331 333 334 338 339 340 339 342 342 341 341 343 344 342 340 340 336 340 345 353 355 356 1 5 12 5 8 6 6 35 60 79 98 101 92 90
260 252 268 288 305 314 326 330 331 335 337 338 340 340 341 341 340 342 343 342 341 341 340 344 351 357 1 4 13 17 19 17 27 28 33 45 61 74 87 96 96 95 101
258 261 271 289 307 318 327 329 331 334 337 339 338 339 341 339 340 341 342 342 342 344 348 3 14 9 10 12 21 20 21 23 26 22 34 59 69 81 92 97 98 100 101
256 266 280 300 311 317 323 326 330 334 337 337 337 339 340 339 341 343 344 344 346 351 1 20 23 14 12 16 20 19 18 18 27 28 38 50 74 87 94 93 90 89 91
262 270 282 297 306 314 320 326 330 333 335 336 337 339 339 340 342 345 345 346 350 356 7 22 18 12 11 14 13 14 24 31 33 40 45 75 92 97 95 86 80 82 84
274 277 284 294 301 311 320 325 329 331 333 336 337 339 339 341 344 346 347 348 353 358 8 16 12 9 13 16 17 16 27 31 39 47 54 82 81 100 95 85 86 74 76
281 282 288 295 302 312 319 325 328 331 333 336 338 339 340 342 346 348 348 350 354 356 7 13 9 9 13 20 24 29 28 33 44 51 58 64 74 87 106 83 82 68 67
286 288 288 295 305 312 319 325 327 330 334 336 337 339 340 344 347 348 349 351 354 355 4 12 5 8 15 20 31 41 39 37 48 53 56 61 64 71 83 69 61 60 68